Location: Jalan Sepang
(2.8072°N, 101.8021°E)
Time: 05:54:52
(UTC+00:00)

deb Olympus - Pass Details

Date: 15 May 2026
Orbit: 451 x 34934 km, 6.4° (Epoch: 7 June)

Event Time Altitude Azimuth Distance (km) Brightness Sun altitude
Rises 12:54:53 0° 275° (W) 2,517 7.4 -23.9°
Reaches altitude 10° 12:56:18 10° 279° (W) 1,819 6.5 -24.2°
Maximum altitude 12:59:40 66° 3° (N) 963 3.9 -25.0°
Enters shadow 13:02:15 38° 71° (ENE) 1,847 5.0 -25.6°
